Regional Weather Roundup
Issued by NWS

Home | Current Version | Previous Version | Text Only | Print | Product List | Glossary On
Versions: 1 2 3 4 5 6 7 8 9 10 11 12 13 14 15 16 17 18 19 20 21 22 23 24 25 26 27 28 29 30 31 32 33 34 35 36 37 38 39 40 41 42 43 44 45 46 47 48 49 50
000
ASUS43 KOAX 232110
RWRNE

WEATHER ROUNDUP FOR NEBRASKA
NATIONAL WEATHER SERVICE OMAHA NE
400 PM CDT THU MAR 23 2017

NOTES: SATELLITE DATA IS BEING USED TO AUGMENT CLOUD COVER ABOVE
       12000 FEET.
       "FAIR" INDICATES FEW OR NO CLOUDS BELOW 12,000 FEET WITH NO
       SIGNIFICANT WEATHER AND/OR OBSTRUCTIONS TO VISIBILITY.

  * THESE STATIONS DO NOT REPORT WEATHER SUCH AS RAIN...SNOW OR FOG.

NEZ001>004-019>022-054>056-232200-
NEBRASKA PANHANDLE

CITY           SKY/WX    TMP DP  RH WIND       PRES   REMARKS
SCOTTSBLUFF    SUNNY     69  37  30 SE12      29.57F
ALLIANCE       SUNNY     72  30  21 N7        29.56F
CHADRON        SUNNY     68  41  37 NE8       29.59S
KIMBALL        MOSUNNY   71  37  29 E7        29.57F
SIDNEY         SUNNY     75  27  17 MISG      29.57F
$$

NEZ057>060-069>072-079>082-232200-
SOUTHWEST NEBRASKA

CITY           SKY/WX    TMP DP  RH WIND       PRES   REMARKS
NORTH PLATTE   SUNNY     70  56  61 SE9       29.57F
IMPERIAL       SUNNY     75  47  36 SE10G18   29.54F
LEXINGTON      CLOUDY    78  54  43 S16       29.56F
MCCOOK         SUNNY     85  45  24 S15G24    29.51F
OGALLALA       SUNNY     79  42  27 SW7       29.55F
$$

NEZ005>010-023>029-035>040-094-232200-
NORTH CENTRAL NEBRASKA

CITY           SKY/WX    TMP DP  RH WIND       PRES   REMARKS
VALENTINE      MOSUNNY   61  45  55 VRB3      29.59S
AINSWORTH      CLOUDY    57  50  77 SW8       29.60S
BROKEN BOW     CLOUDY    58  30  34 S9        29.61F
O`NEILL        CLOUDY    55  53  91 S15       29.63R
ORD            CLOUDY    56  53  90 SE10      29.61F FOG
THEDFORD       CLOUDY    64  51  64 S12       29.59F
$$

NEZ041-046>049-061>064-073>077-083>087-232200-
SOUTH CENTRAL NEBRASKA

CITY           SKY/WX    TMP DP  RH WIND       PRES   REMARKS
GRAND ISLAND   CLOUDY    63  57  81 S10       29.64F
AURORA         CLOUDY    65  56  72 S14G21    29.64F
HASTINGS       CLOUDY    68  56  65 S21G31    29.64F
HEBRON         MOSUNNY   72  55  54 S24G37    29.67F
HOLDREGE       MOSUNNY   76  55  48 S26G32    29.59F
KEARNEY *      PTSUNNY   70  57  64 S23G32    29.61F
YORK           CLOUDY    66  55  68 S17G23    29.66F
$$

NEZ011>018-030>034-042>045-232200-
NORTHEAST NEBRASKA

CITY           SKY/WX    TMP DP  RH WIND       PRES   REMARKS
NORFOLK        CLOUDY    60  52  74 S21G26    29.65F
ALBION         CLOUDY    58  54  85 S20       29.66S
BLAIR          CLOUDY    69  50  50 SE16      29.70F
FREMONT        CLOUDY    67  49  53 SE5       29.70F
TEKAMAH        CLOUDY    64  43  46 E14       29.70F
WAYNE          CLOUDY    58  49  72 SE10      29.68F
$$

NEZ050>053-065>068-078-088>093-232200-
SOUTHEAST NEBRASKA

CITY           SKY/WX    TMP DP  RH WIND       PRES   REMARKS
LINCOLN        CLOUDY    76  54  46 S29G36    29.67F
OMAHA EPPLEY   CLOUDY    71  50  47 SE12      29.71F
BEATRICE       MOSUNNY   77  55  45 S26G33    29.68F
FALLS CITY     SUNNY     79  52  38 S26G37    29.74F
NEBRASKA CITY  PTSUNNY   73  46  37 S26       29.70F
PLATTSMOUTH    CLOUDY    74  47  38 S18G26    29.71S
$$

NEZ044-045-051>053-067-232200-
OMAHA AREA

CITY           SKY/WX    TMP DP  RH WIND       PRES   REMARKS
OMAHA EPPLEY   CLOUDY    71  50  47 SE12      29.71F
BLAIR          CLOUDY    69  50  50 SE16      29.70F
FREMONT        CLOUDY    67  49  53 SE5       29.70F
MILLARD        CLOUDY    73  54  51 SE14      29.69F
OFFUTT AFB     CLOUDY    73  51  46 SE13      29.70F
PLATTSMOUTH    CLOUDY    74  47  38 S18G26    29.71S
WAHOO          CLOUDY    70  52  52 S21       29.69F
$$



USA.gov is the U.S. government's official web portal to all federal, state and local government web resources and services.